Voltar ao catálogo

NOAA 16 DEB

AtivoSSO
NORAD 41089·DEBRIS·🇺🇸 United States

Lançado Sep 21, 2000 de Vandenberg Space Force Base

Loading…

Próximas Passagens (próximas 24 horas)

TLE

AtualizadoSource: Space-Track

Época: Sep 12, 2026, 10:47 UTC

1 41089U 00055AY  26255.44990693  .00002865  00000-0  10201-2 0  9993
2 41089  98.6854 338.8556 0006479 216.1066 143.9682 14.35055173558139

Acompanhe NOAA 16 DEB em tempo real com AllMySat

Download on the App Store